MUNICIPIO DE PAULISTA
| AVANNTE COMERCIO E SERVICOS LTDA | R$ 26.749.822,00 |
| RM TERCEIRIZAÇÃO E GESTÃO DE RECURSOS HUMANOS EIRELI | R$ 12.885.704,28 |
| REAL ENERGY LTDA | R$ 5.137.623,39 |
| FOKUS CONSTRUCAO E INCORPORACAO EIRELI | R$ 3.213.236,98 |
| EICON CONTROLES INTELIGENTES DE NEGÓCIOS LTDA | R$ 3.193.800,00 |
| GIDEP GESTÃO INTELIGENTE DE DEVEDORES PÚBLICOS LTDA | R$ 1.921.000,00 |
| TNA CONSTRUCOES DE INSTALACOES E SERVICOS DE MANUTENCAO - EIRELI | R$ 1.707.000,00 |
| CCN CONSTRUTORA E INCORPORADORA LTDA | R$ 1.662.244,24 |
HHI — referência pública (DOJ/EUA): competitivo (< 1.500) · moderadamente concentrado (1.500–2.500) · concentrado (> 2.500). Indicador de concentração, não juízo sobre a gestão.
| Ata / objeto | UF | Vigência |
|---|---|---|
Registro de Preços Corporativo para o fornecimento eventual de Utensílios de Limpeza, visando atender às necessidades dos órgãos da Administração Direta, dos fundos especiais, Autarquias e Fundações Públicas integrantes do Poder Executivo do Município de Paulista/PE 10408839000117-1-000076/2025-000002 | PE | vigente até 29/10/2026 |
Registro de Preços Corporativo para o fornecimento eventual de Utensílios de Limpeza, visando atender às necessidades dos órgãos da Administração Direta, dos fundos especiais, Autarquias e Fundações Públicas integrantes do Poder Executivo do Município de Paulista/PE 10408839000117-1-000076/2025-000004 | PE | vigente até 29/10/2026 |
Registro de Preços Corporativo para o fornecimento eventual de Utensílios de Limpeza, visando atender às necessidades dos órgãos da Administração Direta, dos fundos especiais, Autarquias e Fundações Públicas integrantes do Poder Executivo do Município de Paulista/PE 10408839000117-1-000076/2025-000003 | PE | vigente até 29/10/2026 |
Registro de Preços Corporativo para o fornecimento eventual de Utensílios de Limpeza, visando atender às necessidades dos órgãos da Administração Direta, dos fundos especiais, Autarquias e Fundações Públicas integrantes do Poder Executivo do Município de Paulista/PE 10408839000117-1-000076/2025-000001 | PE | vigente até 29/10/2026 |
Registro de preços consignado em ata para futura e eventual Contratação de empresa especializada em serviços funerários com translado e fornecimento de urnas, para atender as necessidades da secretaria de Desenvolvimento Social, Políticas Sobre Drogas e Direitos Humanos do município do Paulista/PE. 10408839000117-1-000029/2025-000001 | PE | vigente até 19/10/2026 |
CONTRATAÇÃO DE EMPRESA ESPECIALIZADA EM SERVIÇO DE FORNECIMENTO DE ÁGUA POTÁVEL ATRAVÉS DE CAMINHÃO - PIPA, PARA ATENDER AS NECESSIDADES DE PRÉDIOS VINCULADOS A SECRETARIA DE EDUCAÇÃO DO PAULISTA-PE. 10408839000117-1-000030/2025-000001 | PE | vigente até 09/09/2026 |
O REGISTRO DE PREÇO CONSIGNADO EM ATA PARA FUTURA E EVENTUAL CONTRATAÇÃO DE EMPRESA QUE FORNEÇA GÁS DE COZINHA (GLP), ACONDICIONADO EM BOTIJÃO DE 13 KG A SEREM UTILIZADOS NAS UNIDADES ESCOLARES DO MUNICÍPIO DO PAULISTA. 10408839000117-1-000033/2025-000001 | PE | vigente até 09/09/2026 |
CONSIGNADO EM ATA PARA FUTURA E EVENTUAL REGISTRO DE PREÇO CONSIGNADO EM ATA PARA FUTURA E EVENTUAL AQUISIÇÃO DE APARELHOS DE AR-CONDICIONADO, BEM COMO NA PRESTAÇÃO DE SERVIÇOS CONTÍNUOS, COM EMPREGO DE MATERIAIS, DE MANUTENÇÃO PREVENTIVA E CORRETIVA DOS EQUIPAMENTOS FORNECIDOS, DESTINADOS ÀS UNIDADES ESCOLARES DO MUNICÍPIO DO PAULISTA. 10408839000117-1-000023/2025-000002 | PE | vigente até 08/09/2026 |
Carona/adesão: outro órgão pode comprar por estas atas enquanto vigentes, sem nova licitação.
| Contrato / objeto | Fornecedor | Valor global | Vigência |
|---|---|---|---|
10408839000117-2-000064/2026 | P PEDRO DA SILVA | R$ 70.918,00 | 19/08/2027 |
10408839000117-2-000058/2026 | ELOAH PUBLICIDADE E PROPAGANDA LTDA EPP | R$ 5.145,00 | 12/08/2027 |
10408839000117-2-000062/2026 | REAL ENERGY LTDA | R$ 5.137.623,39 | 03/02/2028 |
10408839000117-2-000061/2026 | RAFAELLA ALVES LIRA PERSIANAS | R$ 4.408,77 | 23/07/2027 |
10408839000117-2-000059/2026 | RAMOS COMERCIAL DE PRODUTOS | R$ 73.579,00 | 19/07/2027 |
10408839000117-2-000060/2026 | D'TERRA COMERCIO DE PRODUTOS E SERVIÇOS LTDA | R$ 80.000,00 | 19/07/2027 |
10408839000117-2-000063/2026 | AVANNTE COMERCIO E SERVICOS LTDA | R$ 26.749.822,00 | 06/07/2027 |
10408839000117-2-000054/2026 | CONSTROI INDUSTRIA E COMERCIO DE MATERIAIS DIVERSOS LTDA | R$ 285.600,00 | 08/06/2027 |
10408839000117-2-000056/2026 | GPB SOLUÇÕES EMPRESARIAIS | R$ 6.336,20 | 02/06/2027 |
10408839000117-2-000051/2026 | DISTRIBUIDORA UNIMAR BRASIL LTDA | R$ 19.800,00 | 18/05/2027 |
10408839000117-2-000046/2026 | INOVAPRINT GRAFICA E EDITORA LTDA | R$ 28.750,00 | 19/05/2026 |
10408839000117-2-000052/2026 | UNICA SANEANTES LTDA | R$ 32.711,00 | 18/05/2027 |
10408839000117-2-000034/2026 | BEMED COMERCIO ATACADISTA DE MEDICAMENTOS LTDA | R$ 20.562,00 | 18/05/2026 |
10408839000117-2-000043/2026 | ANTONIO ROBERIO SOUZA DE ABREU E CIA LTDA | R$ 53.325,00 | 12/05/2027 |
10408839000117-2-000039/2026 | ECOMERCIO AR CONDICIONADOS LTDA | R$ 28.785,00 | 12/05/2027 |
10408839000117-2-000044/2026 | ESTRELA COMUNICAÇÃO GRAFICA EIRELI | R$ 25.800,00 | 12/05/2027 |
10408839000117-2-000055/2026 | R&A ELETROELETRONICO LTDA | R$ 7.949,30 | 12/05/2027 |
10408839000117-2-000050/2026 | CLEANSE MOBILIARIOS URBANOS LTDA | R$ 931.200,00 | 12/05/2027 |
10408839000117-2-000045/2026 | JMCS SOLUÇÕES EM IMPRESSÃO E COMUNICAÇÃO VISUAL LTDA | R$ 3.500,00 | 11/05/2027 |
10408839000117-2-000040/2026 | EDICLEITON BARROS DE SANTANA - ME | R$ 251.396,25 | 11/05/2027 |
10408839000117-2-000041/2026 | OBA GRAFICA | R$ 206.875,00 | 11/05/2027 |
10408839000117-2-000042/2026 | COOPERATIVA DE TRABALHO EM CONSULTORIAS E SERVIÇOS TÉCNICOS | R$ 426.430,00 | 10/05/2027 |
10408839000117-2-000033/2026 | BQS DISTRIBUIDORA LTDA | R$ 213.882,50 | 10/05/2027 |
10408839000117-2-000018/2026 | M L SOARES DA FONSECA | R$ 150.000,00 | 07/05/2026 |
10408839000117-2-000021/2026 | CASULO PRODUCOES ARTISTICAS LTDA | R$ 40.000,00 | 07/05/2026 |
10408839000117-2-000036/2026 | ALESSANDRA B. TONIETTI INSTRUMENTOS MUSICAIS | R$ 15.361,21 | 06/05/2027 |
10408839000117-2-000035/2026 | WILSON COMÉRCIO E SERVIÇOS EIRELI | R$ 4.225,00 | 04/05/2027 |
10408839000117-2-000037/2026 | AMS COMERCIO, IMPORTACAO E EXPORTACAO LTDA | R$ 64.342,40 | 03/05/2027 |
10408839000117-2-000038/2026 | CENTRO MUSICAL IVAIPORA LTDA ME | R$ 5.880,00 | 29/04/2027 |
10408839000117-2-000027/2026 | 61.566.456 DEYVILIN VINICIUS DE OLIVEIRA FRAGOSO | R$ 1.550,00 | 26/04/2027 |
10408839000117-2-000057/2026 | PERNAMBUCO MOTOS LTDA | R$ 140.400,00 | 23/04/2027 |
10408839000117-2-000047/2026 | J M VIEIRA - DISTRIBUIDORA LTDA | R$ 2.150,00 | 23/04/2027 |
10408839000117-2-000026/2026 | ESTRELA COMUNICAÇÃO GRAFICA EIRELI | R$ 996,52 | 16/04/2027 |
10408839000117-2-000024/2026 | UNICA SANEANTES LTDA | R$ 664,65 | 09/04/2027 |
10408839000117-2-000010/2026 | DUARTE CONSTRUTORA E EMPREENDIMENTOS LTDA | R$ 460.148,28 | 09/04/2027 |
10408839000117-2-000028/2026 | WILSON COMÉRCIO E SERVIÇOS EIRELI | R$ 1.857,00 | 08/04/2027 |
10408839000117-2-000025/2026 | SUPRA DISTRIBUIDORA | R$ 3.385,54 | 08/04/2027 |
10408839000117-2-000029/2026 | VIXCARD COMERCIO, SERVICOS E IMPORTACAO DE ARTIGOS PARA IDENTIFICACAO LTDA | R$ 19.050,00 | 30/03/2027 |
10408839000117-2-000031/2026 | PE LOCACOES LTDA | R$ 324.600,00 | 24/03/2027 |
10408839000117-2-000053/2026 | TNA CONSTRUCOES DE INSTALACOES E SERVICOS DE MANUTENCAO - EIRELI | R$ 1.707.000,00 | 24/03/2027 |
10408839000117-2-000030/2026 | NOVOS TEMPOS LOCAÇÕES DE VEÍCULOS EIRELI | R$ 162.140,64 | 24/03/2027 |
10408839000117-2-000032/2026 | ELSON COSTA DE ARAUJO LTDA | R$ 379.200,00 | 24/03/2027 |
10408839000117-2-000007/2026 | AFA INDUSTRIA COMERCIO SERVIÇOS LTDA | R$ 27.318,69 | 09/03/2027 |
10408839000117-2-000009/2026 | RODOVIARIA GRAVATAENSE LTDA | R$ 157.632,00 | 26/02/2027 |
10408839000117-2-000002/2026 | W2 PROMOÇÕES, SONORIZAÇÃO E EVENTOS LTDA | R$ 30.000,00 | 21/08/2026 |
10408839000117-2-000023/2026 | LILIAN MACENA DA SILVA – LMS HITS | R$ 30.000,00 | 20/08/2026 |
10408839000117-2-000022/2026 | T. M. DIAS PRODUCOES ARTISTICAS | R$ 70.000,00 | 20/08/2026 |
10408839000117-2-000048/2026 | PONTES PRODUCOES E EVENTOS LTDA | R$ 120.000,00 | 20/08/2026 |
10408839000117-2-000004/2026 | ARENA EMPREENDIMENTOS LTDA | R$ 82.000,00 | 19/08/2026 |
10408839000117-2-000011/2026 | G 2 PROMOCOES LTDA | R$ 150.000,00 | 19/08/2026 |
Fornecedor pessoa física é omitido por proteção de dados (LGPD).
⚖ Este perfil é montado exclusivamente sobre dados públicos — divulgação obrigatória por força do art. 8º da Lei de Acesso à Informação (12.527/2011) e dos arts. 54 e 174 da Lei 14.133/2021 (PNCP) — e do Portal da Transparência (CEIS/CNEP). Indicadores são estatística transparente (metodologia), não juízo de conduta. Contestações pelo formulário — o pedido fica registrado, não depende de e-mail, e respondemos em até 5 dias úteis.